Weather reports worldwide

Advertisment
Istres, France (7647): temperature & dewpoint: 08.07.2020 11:00:00 - 14.07.2020 11:00:00 (CEST)Istres, France (7647): temperature 5cm: 08.07.2020 11:00:00 - 14.07.2020 11:00:00 (CEST)Istres, France (7647): wind speed & gusts: 08.07.2020 11:00:00 - 14.07.2020 11:00:00 (CEST)Istres, France (7647): wind direction: 08.07.2020 11:00:00 - 14.07.2020 11:00:00 (CEST)Istres, France (7647): reduced air pressure: 08.07.2020 11:00:00 - 14.07.2020 11:00:00 (CEST)Istres, France (7647): visibility: 08.07.2020 11:00:00 - 14.07.2020 11:00:00 (CEST)Istres, France (7647): precipitation: 08.07.2020 11:00:00 - 14.07.2020 11:00:00 (CEST)
Date & Time tt [°C] td [°C] tt 5cm [°C] ff [km/h] ff [kn] fx [km/h] fx [kn] dd ppp [hPa] vv [km] rr [mm]
14.07.2020 11:00:00 27,5 7,9 32,2 16 9 31 17 N 1015,1 60 0,0
14.07.2020 10:00:00 26,8 6,8 31,5 20 11 27 15 N 1015,4 47 0,0
14.07.2020 09:00:00 24,4 8,8 27,4 6 4 15 8 NE 1015,4 47 0,0
14.07.2020 08:00:00 22,3 7,3 21,0 10 5 14 8 N 1015,4 54 0,0
14.07.2020 07:00:00 19,0 9,7 15,8 6 4 12 6 NW 1015,4 52 0,0
14.07.2020 06:00:00 17,3 12,8 15,9 8 4 13 7 SW 1015,3 43 0,0
14.07.2020 05:00:00 18,3 13,6 16,0 5 3 10 5 N 1015,0 45 0,0
14.07.2020 04:00:00 19,5 14,3 17,4 4 2 10 5 NNW 1015,2 38 0,0
14.07.2020 03:00:00 19,5 15,8 18,1 6 4 8 5 NW 1015,3 38 0,0
14.07.2020 02:00:00 20,0 16,2 19,4 6 4 11 6 NNE 1015,5 37 0,0
14.07.2020 01:00:00 21,6 17,4 21,0 9 5 15 8 NE 1015,4 44 0,0
14.07.2020 00:00:00 23,4 17,4 22,3 14 7 21 11 SSE 1015,6 53 0,0
13.07.2020 23:00:00 23,9 15,9 23,4 11 6 16 9 SE 1015,7 53 0,0
13.07.2020 22:00:00 24,6 13,5 23,5 9 5 18 10 ESE 1015,6 60 0,0
13.07.2020 21:00:00 25,0 13,9 25,0 14 8 25 13 SSE 1015,4 60 0,0
13.07.2020 20:00:00 27,2 12,4 29,8 19 11 26 14 S 1015,5 57 0,0
13.07.2020 19:00:00 28,7 12,2 34,0 21 12 33 18 S 1015,4 50 0,0
13.07.2020 18:00:00 29,5 11,5 34,9 22 12 43 23 SW 1015,7 42 0,0
13.07.2020 17:00:00 29,9 12,3 37,5 19 10 36 19 S 1016,2 44 0,0
13.07.2020 16:00:00 30,3 12,7 37,9 22 12 40 21 SSW 1016,5 46 0,0
13.07.2020 15:00:00 31,1 12,9 39,2 23 13 43 23 S 1017,1 48 0,0
13.07.2020 14:00:00 30,6 12,5 37,7 21 12 37 20 S 1017,6 52 0,0
13.07.2020 13:00:00 30,2 11,7 37,4 14 8 29 15 W 1017,9 45 0,0
13.07.2020 12:00:00 30,0 12,0 36,2 9 5 21 11 SW 1018,3 20 0,0
13.07.2020 11:00:00 28,7 12,6 35,4 9 5 18 10 W 1018,4 38 0,0
13.07.2020 10:00:00 26,8 15,5 29,6 5 3 16 9 N 1018,5 42 0,0
13.07.2020 09:00:00 25,4 15,4 27,9 7 4 14 8 NW 1018,4 39 0,0
13.07.2020 08:00:00 24,6 17,8 21,2 4 2 9 5 ESE 1018,3 29 0,0
13.07.2020 07:00:00 21,0 17,0 21,0 5 3 11 6 NE 1018,1 26 0,0
13.07.2020 06:00:00 21,4 17,0 21,2 4 2 14 8 E 1018,0 29 0,0
13.07.2020 05:00:00 21,4 17,0 21,4 7 4 13 7 ENE 1017,9 29 0,0
13.07.2020 04:00:00 21,4 16,1 20,7 6 3 10 5 NE 1018,3 36 0,0
13.07.2020 03:00:00 21,7 15,8 20,8 2 1 9 5 NE 1018,5 44 0,0
13.07.2020 02:00:00 22,2 15,8 21,3 6 3 8 4 SSE 1018,9 32 0,0
13.07.2020 01:00:00 22,0 15,1 20,5 4 2 8 4 SE 1018,8 42 0,0
13.07.2020 00:00:00 22,7 15,0 21,2 6 3 11 6 S 1019,0 44 0,0
12.07.2020 23:00:00 23,8 13,9 22,9 10 5 14 7 S 1018,7 57 0,0
12.07.2020 22:00:00 24,6 16,1 23,5 3 2 12 6 N 1017,7 10 0,0
12.07.2020 21:00:00 26,1 15,2 26,0 5 3 19 10 SE 1017,0 59 0,0
12.07.2020 20:00:00 26,7 14,1 27,9 17 9 32 17 WSW 1017,5 59 0,0
12.07.2020 19:00:00 28,1 17,0 29,9 22 12 31 17 SSW 1017,3 49 0,0
12.07.2020 18:00:00 29,0 16,9 31,9 20 11 36 20 SW 1017,5 46 0,0
12.07.2020 17:00:00 30,8 16,8 33,2 22 12 35 19 WSW 1017,7 20 0,0
12.07.2020 16:00:00 31,3 17,2 34,0 21 11 39 21 W 1017,9 20 0,0
12.07.2020 15:00:00 31,1 15,9 36,9 16 8 33 18 W 1018,0 20 0,0
12.07.2020 14:00:00 31,2 14,8 35,5 15 8 31 17 SW 1018,2 60 0,0
12.07.2020 13:00:00 29,8 15,9 - 8 4 21 11 W 1018,0 19 0,0
12.07.2020 12:00:00 28,8 14,2 34,2 10 5 23 13 ENE 1017,9 17 0,0
12.07.2020 11:00:00 27,0 12,6 31,6 14 8 26 14 NE 1017,8 60 0,0
12.07.2020 10:00:00 25,4 10,0 28,9 16 9 25 13 N 1018,0 60 0,0
12.07.2020 09:00:00 22,6 9,0 25,5 15 8 23 13 N 1017,9 48 0,0
12.07.2020 08:00:00 21,0 8,3 21,4 15 8 26 14 NNE 1017,4 20 0,0
12.07.2020 07:00:00 19,2 7,9 17,2 15 8 23 12 N 1016,9 60 0,0
12.07.2020 06:00:00 19,2 7,3 18,3 13 7 22 12 N 1016,4 60 0,0
12.07.2020 05:00:00 20,0 7,0 19,1 13 7 21 12 N 1016,1 60 0,0
12.07.2020 04:00:00 21,0 6,9 20,2 16 9 31 17 N 1016,0 60 0,0
12.07.2020 03:00:00 21,8 6,5 21,0 24 13 37 20 N 1016,0 60 0,0
12.07.2020 02:00:00 22,2 6,4 21,6 27 15 43 23 NNW 1015,9 60 0,0
12.07.2020 01:00:00 23,3 6,1 22,6 28 15 48 26 N 1015,9 60 0,0
12.07.2020 00:00:00 24,1 6,4 23,5 34 18 57 31 NNW 1015,7 60 0,0
11.07.2020 23:00:00 24,7 6,0 24,1 36 20 55 30 NNW 1015,8 60 0,0
11.07.2020 22:00:00 25,2 7,8 24,8 38 21 68 37 NNW 1015,6 60 0,0
11.07.2020 21:00:00 26,4 7,4 26,7 44 24 71 38 NNW 1015,3 29 0,0
11.07.2020 20:00:00 27,9 6,6 29,6 48 26 76 41 NNW 1014,9 20 0,0
11.07.2020 19:00:00 29,0 6,4 32,4 48 26 75 40 NNW 1015,0 14 0,0
11.07.2020 18:00:00 29,3 6,6 33,6 45 24 74 40 NNW 1015,1 9 0,0
11.07.2020 17:00:00 30,2 8,0 34,0 45 25 73 40 NNW 1015,2 9 0,0
11.07.2020 16:00:00 29,8 9,8 34,7 44 24 69 37 NNW 1015,4 12 0,0
11.07.2020 15:00:00 29,3 10,4 34,2 52 28 69 37 NNW 1015,7 14 0,0
11.07.2020 14:00:00 29,3 11,8 33,2 48 26 73 39 NNW 1015,8 16 0,0
11.07.2020 13:00:00 28,1 12,4 32,5 49 26 64 35 NNW 1016,0 18 0,0
11.07.2020 12:00:00 27,1 13,4 30,9 45 25 60 33 NNW 1016,1 20 0,0
11.07.2020 11:00:00 26,1 13,6 29,5 39 21 56 30 NNW 1016,1 23 0,0
11.07.2020 10:00:00 25,1 14,2 27,7 39 21 55 30 NNW 1016,1 26 0,0
11.07.2020 09:00:00 - - - - - - - - - - -
11.07.2020 08:00:00 - - - - - - - - - - -
11.07.2020 07:00:00 - - - - - - - - - - -
11.07.2020 06:00:00 - - - - - - - - - - -
11.07.2020 05:00:00 - - - - - - - - - - -
11.07.2020 04:00:00 22,5 17,4 22,1 14 8 26 14 NNW 1014,6 60 0,0
11.07.2020 03:00:00 23,3 18,2 23,1 12 6 19 11 NW 1014,7 47 0,0
11.07.2020 02:00:00 23,8 18,4 23,7 16 9 22 12 NNW 1014,8 40 0,0
11.07.2020 01:00:00 23,7 19,4 23,4 9 5 13 7 NNW 1014,8 25 0,0
11.07.2020 00:00:00 23,8 19,9 23,5 7 4 17 9 E 1014,5 20 0,0
10.07.2020 23:00:00 24,2 19,5 24,3 14 7 21 12 ESE 1014,3 20 0,0
10.07.2020 22:00:00 24,8 18,5 24,8 6 3 10 6 SSE 1014,4 23 0,0
10.07.2020 21:00:00 24,7 18,9 25,3 9 5 18 10 SSW 1014,5 30 0,0
10.07.2020 20:00:00 25,4 18,6 26,7 16 9 29 15 WSW 1014,6 33 0,0
10.07.2020 19:00:00 26,5 18,9 31,0 15 8 40 21 SW 1014,3 20 0,0
10.07.2020 18:00:00 27,3 19,4 34,3 24 13 37 20 S 1013,6 19 0,0
10.07.2020 17:00:00 28,1 18,2 34,5 29 16 43 23 S 1013,8 59 0,0
10.07.2020 16:00:00 29,8 17,9 36,1 22 12 30 16 S 1013,7 60 0,0
10.07.2020 15:00:00 31,6 17,9 39,5 16 9 29 16 SSW 1014,0 19 0,0
10.07.2020 14:00:00 30,2 18,0 38,1 10 6 22 12 SSW 1014,7 56 0,0
10.07.2020 13:00:00 30,0 17,5 36,6 9 5 20 11 SSE 1015,2 15 0,0
10.07.2020 12:00:00 27,9 18,0 34,8 10 6 21 11 SE 1015,6 49 0,0
10.07.2020 11:00:00 27,3 17,2 31,8 8 4 19 11 SE 1016,2 44 0,0
10.07.2020 10:00:00 25,7 17,4 29,1 9 5 19 11 ESE 1015,9 37 0,0
10.07.2020 09:00:00 24,0 17,7 25,8 10 6 17 9 ESE 1016,0 20 0,0
10.07.2020 08:00:00 22,5 18,1 21,5 13 7 18 10 ESE 1015,9 20 0,0
10.07.2020 07:00:00 19,6 17,9 18,6 6 3 10 5 E 1015,6 9 0,0
10.07.2020 06:00:00 19,7 18,4 18,5 2 1 11 6 E 1015,7 7 0,0
10.07.2020 05:00:00 19,9 17,9 19,5 9 5 14 8 WSW 1015,7 12 0,0
10.07.2020 04:00:00 20,8 17,6 20,4 11 6 19 11 E 1015,0 20 0,0
10.07.2020 03:00:00 21,2 19,3 20,9 13 7 21 11 E 1015,4 12 0,0
10.07.2020 02:00:00 21,3 19,9 20,9 12 7 17 9 ESE 1016,1 3,7 0,0
10.07.2020 01:00:00 21,2 19,8 20,8 9 5 14 8 SE 1016,7 7 0,0
10.07.2020 00:00:00 21,4 19,9 20,7 7 4 10 6 SSE 1016,7 13 0,0
09.07.2020 23:00:00 21,6 19,5 21,2 7 4 16 9 S 1016,6 20 0,0
09.07.2020 22:00:00 21,8 19,5 21,6 12 6 20 11 SSE 1016,0 29 0,0
09.07.2020 21:00:00 23,4 18,5 23,7 11 6 25 13 S 1015,9 51 0,0
09.07.2020 20:00:00 24,6 17,6 27,6 20 11 28 15 SSW 1015,6 47 0,0
09.07.2020 19:00:00 26,1 17,2 31,5 19 10 32 17 S 1015,5 46 0,0
09.07.2020 18:00:00 27,7 17,2 34,7 22 12 30 16 S 1015,9 20 0,0
09.07.2020 17:00:00 30,4 14,9 37,8 18 10 32 18 S 1016,1 43 0,0
09.07.2020 16:00:00 30,3 14,4 38,7 21 12 36 19 S 1016,5 20 0,0
09.07.2020 15:00:00 30,4 14,9 38,0 17 9 35 19 S 1016,7 19 0,0
09.07.2020 14:00:00 29,1 14,5 38,1 19 10 34 18 S 1017,2 20 0,0
09.07.2020 13:00:00 29,7 14,7 37,5 15 8 24 13 S 1017,1 20 0,0
09.07.2020 12:00:00 29,0 11,5 35,9 6 4 19 10 S 1017,3 20 0,0
09.07.2020 11:00:00 27,2 11,2 33,9 6 3 18 10 SW 1017,6 58 0,0
09.07.2020 10:00:00 25,9 10,1 31,4 6 4 17 9 W 1017,6 50 0,0
09.07.2020 09:00:00 24,2 10,5 25,4 5 3 17 9 S 1017,1 48 0,0
09.07.2020 08:00:00 21,2 10,7 20,1 12 6 16 9 NNE 1016,2 20 0,0
09.07.2020 07:00:00 17,7 10,3 16,0 13 7 19 11 NE 1016,1 58 0,0
09.07.2020 06:00:00 16,4 10,0 15,7 11 6 19 11 NE 1016,3 60 0,0
09.07.2020 05:00:00 16,6 10,9 16,4 12 6 16 9 NE 1016,5 60 0,0
09.07.2020 04:00:00 18,1 12,5 17,1 6 3 9 5 E 1016,6 51 0,0
09.07.2020 03:00:00 20,1 13,3 19,0 6 4 13 7 ESE 1016,9 59 0,0
09.07.2020 02:00:00 20,5 13,2 19,0 9 5 11 6 ESE 1017,0 59 0,0
09.07.2020 01:00:00 20,4 14,5 19,1 7 4 10 6 SE 1017,2 60 0,0
09.07.2020 00:00:00 20,3 15,5 19,4 9 5 11 6 SSE 1017,4 60 0,0
08.07.2020 23:00:00 21,3 15,4 20,7 8 5 12 6 S 1017,2 60 0,0
08.07.2020 22:00:00 22,0 14,9 21,4 8 4 14 8 S 1016,4 60 0,0
08.07.2020 21:00:00 24,3 14,1 25,0 10 6 19 10 S 1015,8 54 0,0
08.07.2020 20:00:00 25,5 13,4 29,0 16 8 25 13 SSW 1015,6 44 0,0
08.07.2020 19:00:00 27,1 13,4 32,7 17 9 31 17 S 1015,7 60 0,0
08.07.2020 18:00:00 28,4 11,5 35,7 21 12 30 16 S 1016,0 20 0,0
08.07.2020 17:00:00 29,7 11,2 37,1 20 11 46 25 S 1016,0 50 0,0
08.07.2020 16:00:00 30,5 11,5 37,3 16 8 50 27 SSW 1016,2 20 0,0
08.07.2020 15:00:00 30,3 12,2 36,8 22 12 33 18 SSE 1016,7 20 0,0
08.07.2020 14:00:00 30,6 10,5 37,4 9 5 29 15 SSW 1016,6 17 0,0
08.07.2020 13:00:00 29,3 9,4 37,6 7 4 16 9 SE 1016,6 58 0,0
08.07.2020 12:00:00 28,8 9,5 35,2 8 4 24 13 W 1016,7 53 0,0
08.07.2020 11:00:00 26,5 9,8 32,7 5 3 17 9 NNW 1016,5 56 0,0

tt = temperature
td = dewpoint
tt 5cm = temperature 5cm
ff = wind speed
fx = gusts
dd = wind direction
ppp = reduced air pressure
vv = visibility
rr = precipitation

Next stations